Date String (YYYY-MM-DD hh:mm:ss) UTC,Instrument flags,absolute air pressure of the measurement (hPa),sample flow rate (lpm),inlet stack bypass flow (lpm),air temperature of the measurement (°C),ambient temperature measured by the external sensor (°C),aerosol sample conditioner tube jacket temperature (°C),OPC LED temperature (°C),internal box temperature (°C),relative humidity of the measurement (%),span deviation,mass concentration of particles derived from Lorenz-Mie calculation of OPC scattering (μg/m³),mass concentration of particles derived from Lorenz-Mie calculation of OPC scattering (μg/m³),mass concentration of particles derived from Lorenz-Mie calculation of OPC scattering (μg/m³)
DateTimeUTC,F1_M11,P_M11,Q1_M11,Q2_M11,T1_M11,T2_M11,T3_M11,T4_M11,T5_M11,U1_M11,ZSPAN_M11,X0_M11,X2_M11,X1_M11
2024-05-20 17:00:00,SystemResetWarning,0826.2,5.01,000.00,026.6,025.9,000.0,034.7,028.4,022.7,0000.0,0017.30,0005.89,0004.34
2024-05-20 17:01:00,SystemResetWarning,0826.2,5.00,000.00,026.6,026.0,000.0,034.8,028.4,022.5,0000.0,0018.72,0005.86,0004.34
2024-05-20 17:02:00,SystemResetWarning,0826.2,5.01,000.00,026.6,026.0,000.0,034.8,028.4,023.1,0000.0,0018.88,0005.78,0004.34
2024-05-20 17:03:00,SystemResetWarning,0826.2,5.00,000.00,026.6,026.0,000.0,034.8,028.4,022.9,0000.0,0018.24,0005.77,0004.33
2024-05-20 17:04:00,SystemResetWarning,0826.2,5.00,000.00,026.6,026.0,000.0,034.8,028.4,023.1,0000.0,0018.38,0005.74,0004.31
2024-05-20 17:05:00,SystemResetWarning,0826.2,5.00,000.00,026.7,026.0,000.0,034.8,028.4,022.6,0000.0,0018.16,0005.72,0004.31
2024-05-20 17:06:00,SystemResetWarning,0826.2,5.00,000.00,026.7,026.0,000.0,034.8,028.5,022.6,0000.0,0018.14,0005.74,0004.32
2024-05-20 17:07:00,SystemResetWarning,0826.2,5.00,000.00,026.7,026.0,000.0,034.8,028.5,022.4,0000.0,0018.77,0005.79,0004.33
2024-05-20 17:08:00,SystemResetWarning,0826.2,5.00,000.00,026.7,026.0,000.0,034.8,028.5,022.5,0000.0,0018.62,0005.81,0004.34
2024-05-20 17:09:00,SystemResetWarning,0826.2,4.99,000.00,026.7,026.0,000.0,034.9,028.5,022.4,0000.0,0018.66,0005.80,0004.35
2024-05-20 17:10:00,SystemResetWarning,0826.1,5.00,000.00,026.7,026.1,000.0,034.9,028.5,022.7,0000.0,0019.37,0005.85,0004.39
2024-05-20 17:11:00,SystemResetWarning,0826.1,5.00,000.00,026.7,026.1,000.0,034.9,028.5,022.7,0000.0,0019.33,0005.80,0004.41
2024-05-20 17:12:00,SystemResetWarning,0826.1,5.00,000.00,026.7,026.1,000.0,034.9,028.5,022.7,0000.0,0018.80,0005.80,0004.43
2024-05-20 17:13:00,SystemResetWarning,0826.1,5.00,000.00,026.8,026.1,000.0,034.9,028.6,023.1,0000.0,0019.04,0005.85,0004.43
2024-05-20 17:14:00,SystemResetWarning,0826.1,5.00,000.00,026.8,026.1,000.0,034.9,028.6,023.0,0000.0,0019.98,0005.92,0004.46
2024-05-20 17:15:00,SystemResetWarning,0826.2,5.00,000.00,026.8,026.1,000.0,034.9,028.6,022.7,0000.0,0020.95,0005.99,0004.50
2024-05-20 17:16:00,SystemResetWarning,0826.1,5.00,000.00,026.8,026.2,000.0,035.0,028.6,022.4,0000.0,0021.53,0006.01,0004.53
2024-05-20 17:17:00,SystemResetWarning,0826.0,4.99,000.00,026.8,026.2,000.0,035.0,028.6,022.6,0000.0,0022.28,0006.05,0004.57
2024-05-20 17:18:00,SystemResetWarning,0826.0,5.00,000.00,026.8,026.2,000.0,035.0,028.6,022.7,0000.0,0023.00,0006.04,0004.60
2024-05-20 17:19:00,SystemResetWarning,0826.0,5.01,000.00,026.8,026.2,000.0,035.0,028.6,022.4,0000.0,0023.55,0006.06,0004.63
2024-05-20 17:20:00,SystemResetWarning,0825.9,4.99,000.00,026.9,026.2,000.0,035.0,028.6,022.3,0000.0,0024.24,0006.15,0004.69
2024-05-20 17:21:00,SystemResetWarning,0825.9,5.00,000.00,026.9,026.2,000.0,035.0,028.6,023.0,0000.0,0025.03,0006.17,0004.72
2024-05-20 17:22:00,SystemResetWarning,0825.9,5.00,000.00,026.9,026.2,000.0,035.0,028.6,023.6,0000.0,0024.30,0006.21,0004.73
2024-05-20 17:23:00,SystemResetWarning,0825.9,5.00,000.00,026.9,026.3,000.0,035.0,028.7,023.5,0000.0,0024.82,0006.23,0004.74
2024-05-20 17:24:00,SystemResetWarning,0825.9,5.00,000.00,026.9,026.3,000.0,035.1,028.7,022.6,0000.0,0025.90,0006.30,0004.77
2024-05-20 17:25:00,SystemResetWarning,0825.9,5.01,000.00,026.9,026.3,000.0,035.1,028.7,022.9,0000.0,0026.48,0006.32,0004.81
2024-05-20 17:26:00,SystemResetWarning,0825.9,5.01,000.00,026.9,026.3,000.0,035.1,028.7,023.1,0000.0,0025.53,0006.31,0004.83
2024-05-20 17:27:00,SystemResetWarning,0825.9,5.00,000.00,026.9,026.3,000.0,035.1,028.7,022.9,0000.0,0025.13,0006.35,0004.84
2024-05-20 17:28:00,SystemResetWarning,0825.9,5.01,000.00,027.0,026.3,000.0,035.1,028.7,022.6,0000.0,0024.81,0006.35,0004.84
2024-05-20 17:29:00,SystemResetWarning,0825.9,5.00,000.00,027.0,026.3,000.0,035.1,028.8,022.3,0000.0,0023.79,0006.36,0004.85
2024-05-20 17:30:00,SystemResetWarning,0825.9,5.00,000.00,027.0,026.3,000.0,035.1,028.8,022.9,0000.0,0024.44,0006.40,0004.86
2024-05-20 17:31:00,SystemResetWarning,0825.9,4.99,000.00,027.0,026.3,000.0,035.2,028.8,023.2,0000.0,0024.39,0006.36,0004.84
2024-05-20 17:32:00,SystemResetWarning,0825.9,5.00,000.00,027.0,026.4,000.0,035.2,028.8,022.9,0000.0,0022.98,0006.32,0004.84
2024-05-20 17:33:00,SystemResetWarning,0825.9,5.00,000.00,027.0,026.4,000.0,035.2,028.8,022.6,0000.0,0022.52,0006.31,0004.86
2024-05-20 17:34:00,SystemResetWarning,0825.9,5.01,000.00,027.0,026.4,000.0,035.2,028.8,022.2,0000.0,0022.32,0006.33,0004.90
2024-05-20 17:35:00,SystemResetWarning,0825.9,5.01,000.00,027.1,026.4,000.0,035.2,028.8,022.0,0000.0,0021.64,0006.33,0004.93
2024-05-20 17:36:00,SystemResetWarning,0825.9,5.00,000.00,027.1,026.4,000.0,035.2,028.8,022.1,0000.0,0020.39,0006.36,0004.96
2024-05-20 17:37:00,SystemResetWarning,0825.9,5.00,000.00,027.1,026.4,000.0,035.2,028.9,022.1,0000.0,0020.50,0006.41,0004.98
2024-05-20 17:38:00,SystemResetWarning,0825.9,5.00,000.00,027.1,026.5,000.0,035.3,028.9,022.3,0000.0,0020.06,0006.39,0005.03
2024-05-20 17:39:00,SystemResetWarning,0825.9,4.99,000.00,027.1,026.5,000.0,035.3,028.9,022.6,0000.0,0019.49,0006.43,0005.08
2024-05-20 17:40:00,SystemResetWarning,0825.9,4.99,000.00,027.1,026.5,000.0,035.3,028.9,022.7,0000.0,0019.90,0006.41,0005.10
2024-05-20 17:41:00,SystemResetWarning,0825.9,5.00,000.00,027.2,026.5,000.0,035.3,028.9,022.7,0000.0,0020.36,0006.42,0005.14
2024-05-20 17:42:00,SystemResetWarning,0825.9,5.00,000.00,027.2,026.6,000.0,035.3,029.0,022.6,0000.0,0021.26,0006.53,0005.18
2024-05-20 17:43:00,SystemResetWarning,0825.9,5.00,000.00,027.2,026.6,000.0,035.4,029.0,022.9,0000.0,0021.03,0006.60,0005.22
2024-05-20 17:44:00,SystemResetWarning,0825.9,5.00,000.00,027.2,026.6,000.0,035.4,029.0,023.0,0000.0,0021.91,0006.67,0005.25
2024-05-20 17:45:00,SystemResetWarning,0825.9,5.01,000.00,027.2,026.6,000.0,035.4,029.0,022.8,0000.0,0022.71,0006.80,0005.27
2024-05-20 17:46:00,SystemResetWarning,0825.9,5.00,000.00,027.2,026.6,000.0,035.4,029.0,023.1,0000.0,0022.28,0006.81,0005.28
2024-05-20 17:47:00,SystemResetWarning,0825.9,5.00,000.00,027.3,026.7,000.0,035.4,029.0,023.0,0000.0,0021.90,0006.78,0005.26
2024-05-20 17:48:00,SystemResetWarning,0825.9,5.00,000.00,027.3,026.7,000.0,035.4,029.1,023.0,0000.0,0022.42,0006.77,0005.26
2024-05-20 17:49:00,SystemResetWarning,0825.9,5.00,000.00,027.3,026.7,000.0,035.4,029.1,023.2,0000.0,0022.46,0006.79,0005.24
2024-05-20 17:50:00,SystemResetWarning,0825.9,5.00,000.00,027.3,026.7,000.0,035.5,029.1,023.7,0000.0,0022.00,0006.77,0005.21
2024-05-20 17:51:00,SystemResetWarning,0825.9,4.99,000.00,027.3,026.7,000.0,035.5,029.1,023.4,0000.0,0021.20,0006.78,0005.19
2024-05-20 17:52:00,SystemResetWarning,0825.8,4.99,000.00,027.3,026.7,000.0,035.5,029.2,023.1,0000.0,0020.38,0006.82,0005.18
2024-05-20 17:53:00,SystemResetWarning,0825.8,5.00,000.00,027.4,026.8,000.0,035.5,029.2,022.6,0000.0,0019.16,0006.78,0005.18
2024-05-20 17:54:00,SystemResetWarning,0825.8,5.00,000.00,027.4,026.8,000.0,035.6,029.2,022.1,0000.0,0018.65,0006.82,0005.17
2024-05-20 17:55:00,SystemResetWarning,0825.8,4.99,000.00,027.4,026.8,000.0,035.6,029.2,022.2,0000.0,0019.49,0006.78,0005.18
2024-05-20 17:56:00,SystemResetWarning,0825.8,5.00,000.00,027.4,026.8,000.0,035.6,029.2,022.5,0000.0,0019.30,0006.73,0005.19
2024-05-20 17:57:00,SystemResetWarning,0825.8,5.00,000.00,027.4,026.8,000.0,035.6,029.2,022.9,0000.0,0020.49,0006.76,0005.23
2024-05-20 17:58:00,SystemResetWarning,0825.8,5.00,000.00,027.4,026.8,000.0,035.6,029.2,022.6,0000.0,0020.73,0006.80,0005.26
2024-05-20 17:59:00,SystemResetWarning,0825.8,5.00,000.00,027.5,026.8,000.0,035.6,029.2,022.4,0000.0,0020.20,0006.83,0005.27
